Regional Weather Roundup
Issued by NWS

Home | Current Version | Previous Version | Text Only | Print | Product List | Glossary Off
Versions: 1 2 3 4 5 6 7 8 9 10 11 12 13 14 15 16 17 18 19 20 21 22 23 24 25 26 27 28

000
ASUS45 KSLC 192210
RWRUT

UTAH REGIONAL WEATHER ROUNDUP
NATIONAL WEATHER SERVICE SALT LAKE CITY UT
300 PM MST MON FEB 19 2018

UTZ001>011-023>025-192300-

NORTHERN UTAH

CITY           SKY/WX    TMP DP  RH WIND       PRES   REMARKS
BRIGHAM CITY   CLOUDY    28  16  62 N16       29.61R WCI  15
HILL AFB       FLURRIES  23  17  76 N9        29.58R WCI  13
LOGAN          CLOUDY    27  14  58 N12       29.59R WCI  17
OGDEN          CLOUDY    26  15  63 N13       29.58R WCI  15
SALT LAKE CITY CLOUDY    30  17  58 NW15      29.60R WCI  19
TOOELE VALLEY  MIX PCPN  27  19  74 N6        29.62R WCI  20
WENDOVER       PTSUNNY   32   5  32 NW15G23   29.63  WCI  22
HEBER CITY       N/A     27  16  63 N9        29.46R WCI  17
WEST JORDAN    CLOUDY    25  17  73 N15       29.60R WCI  12

$$

UTZ011>015-024>027-192300-

CENTRAL/NORTHEAST UTAH

CITY           SKY/WX    TMP DP  RH WIND       PRES   REMARKS
PROVO AIRPORT  FLURRIES  25  19  78 NW22      29.59R WCI  10
MOAB/CANYONLAN CLOUDY   N/A N/A N/A SW23      29.40R
DELTA          CLOUDY    27  21  80 NW12      29.59R WCI  16
PRICE          CLOUDY    30   9  41 NW13G21   29.37R WCI  20
RICHFIELD      PTSUNNY   27  23  86 NE9       29.52R WCI  17
ROOSEVELT      PTSUNNY   30  23  74 SE15      29.39R WCI  19
VERNAL         CLOUDY    20  10  65 E17       29.43R WCI   5

$$

UTZ013>016-019>022-027-192300-

SOUTHERN UTAH

CITY           SKY/WX    TMP DP  RH WIND       PRES   REMARKS
BRYCE CANYON   CLOUDY    20  10  65 NW20G29   29.45R WCI   4
CEDAR CITY     FLURRIES  27  20  75 S7        29.53R WCI  19
MILFORD        LGT SNOW  24  19  81 N17       29.57R WCI  11
ST GEORGE      MOCLDY    43  18  36 SW18G25   29.61F
HANKSVILLE     PTSUNNY   46   9  21 W10G20    29.39S
KANAB          MOSUNNY   37  12  35 SW16G25   29.60R WCI  28
BLANDING         N/A     33  20  58 W29G36    29.52R WCI  19

$$

REGIONAL REPORTS     COLORADO/ARIZONA

CITY           SKY/WX    TMP DP  RH WIND       PRES   REMARKS
CRAIG, CO      LGT SNOW   7   2  80 SW13      29.49R VSB 1   WCI  -9
GRAND JUNCTION PTSUNNY   38  28  67 W25       29.35F WCI  27
RIFLE, CO      LGT RAIN  33  29  85 W20G29    29.34S FOG     WCI  21
MONTROSE, CO   CLOUDY    44  24  45 S25G31    29.36F
CORTEZ, CO     CLOUDY    45  19  35 SW30G46   29.42F
COLORADO CITY  MOCLDY    34  23  64 W10G16    29.62R WCI  26
PAGE, AZ       PTSUNNY   40  20  44 W18G38    29.49F WCI  31
GRAND CANYON   CLOUDY    27   6  41 W22G36    29.54R WCI  13
KINGMAN, AZ    CLOUDY    43  11  27 SW18G35   29.67S
FLAGSTAFF, AZ  LGT SNOW  27  22  81 W20G43    29.53R WCI  13

$$

REGIONAL REPORTS    NEVADA/IDAHO/WYOMING

CITY           SKY/WX    TMP DP  RH WIND       PRES   REMARKS
LAS VEGAS, NV  PTSUNNY   49  -4  11 N17G29    29.69R
ELY, NY        CLOUDY    18  12  77 N13       29.59R WCI   5
ELKO, NV       MOSUNNY   26   6  42 NW13G28   29.67S WCI  15
POCATELLO, ID  MOSUNNY   26   7  44 W6        29.64R WCI  19
BURLEY, ID     CLOUDY    27  17  66 W12G23    29.64R WCI  17
EVANSTON, WY   LGT SNOW  11   7  84 S3        29.45R FOG
ROCK SPRINGS,  LGT SNOW   3  -5  69 NE18      29.49R WCI -17

$$




USA.gov is the U.S. government's official web portal to all federal, state and local government web resources and services.